Location: Helstorf
(52.5868°N, 9.5862°E)
Time: 07:59:25
(UTC+00:00)

USA 186 - Pass Details

Date: 15 May 2026
Orbit: 338 x 359 km, 97.0° (Epoch: 19 May)

Event Time Altitude Azimuth Distance (km) Brightness Sun altitude
Exits shadow 21:12:57 - 220° (SW) 1,751 4.7 -13.4°
Reaches altitude 10° 21:14:49 10° 248° (WSW) 1,285 4.3 -13.6°
Maximum altitude 21:15:50 12° 270° (W) 1,205 4.5 -13.6°
Drops below altitude 10° 21:16:53 10° 292° (WNW) 1,294 5.0 -13.7°
Sets 21:19:49 0° 328° (NNW) 2,142 7.4 -13.9°
